Station ABYA2 - Auke Bay Lab Dock, AK Image indicating link to RSS feed of recent meteorological observations for station ABYA2


Conditions at ABYA2 as of
(11:52 am AKDT)
1952 GMT on 04/16/2024:
     

Click on the graph icon in the table below to see a time series plot of the last five days of that observation.

5-day plot - Wind Direction Wind Direction (WDIR): S ( 180 deg true )
5-day plot - Wind Speed Wind Speed (WSPD): 4.1 kts
5-day plot - Wind Gust Wind Gust (GST): 5.1 kts
5-day plot - Atmospheric Pressure Atmospheric Pressure (PRES):30.53 in
5-day plot - Air Temperature Air Temperature (ATMP): 41.2 °F
5-day plot - Dew Point Dew Point (DEWP): 28.2 °F
5-day plot - Wind Chill Wind Chill (CHILL): 38.1 °F
5-day plot - Wind Speed at 10 Meters Wind Speed at 10 meters (WSPD10M): 5.8 kts
5-day plot - Wind Speed at 20 Meters Wind Speed at 20 meters (WSPD20M): 5.8 kts
5-day plot -  Wind Speed, Wind Gust and Atmospheric Pressure Combined plot of Wind Speed, Gust, and Air Pressure
Previous observations
TIME
(AKDT)
5-day plot - Wind Direction
WDIR
 
5-day plot - Wind Speed
WSPD
kts
5-day plot - Wind Gust
GST
kts
5-day plot - Wave Height
WVHT
ft
5-day plot - Dominant Wave Period
DPD
sec
5-day plot - Average Wave Period
APD
sec
5-day plot - Mean Wave Direction
MWD
 
5-day plot - Atmospheric Pressure
PRES
in
5-day plot - Pressure Tendency
PTDY
in
5-day plot - Air Temperature
ATMP
°F
5-day plot - Water Temperature
WTMP
°F
5-day plot - Dew Point
DEWP
°F
5-day plot - Salinity
SAL
psu
5-day plot - Visibility
VIS
nmi
5-day plot - Tide (above MLLW)
TIDE
ft
2024-04-16 10:52 am S 2.9 2.9----30.54- 38.8- 28.6---
2024-04-16 07:52 am- 0.0 1.9----30.53- 30.0- 25.7---
2024-04-16 06:52 am- 0.0 1.9----30.53- 29.5- 25.9---
2024-04-16 05:52 am- 0.0 2.9----30.52- 29.7- 24.8---
2024-04-16 04:52 am- 0.0 1.9----30.52- 30.2- 25.0---
2024-04-16 03:52 amENE 1.0 1.9----30.51- 30.6- 25.2---
2024-04-16 02:52 am- 0.0 2.9----30.50- 31.5- 26.4---
2024-04-16 01:52 am- 0.0 1.9----30.49- 31.6- 25.5---
2024-04-16 12:52 amENE 1.0 2.9----30.48- 33.1- 24.8---
2024-04-15 11:52 pm N 1.9 2.9----30.47- 34.0- 26.6---
2024-04-15 10:52 pm N 1.0 1.9----30.46- 35.6- 26.2---
2024-04-15 09:52 pm- 0.0 2.9----30.45- 37.9- 27.1---
2024-04-15 08:52 pm- 0.0 2.9----30.43- 43.2- 23.4---
2024-04-15 07:52 pm N 1.9 6.0----30.41- 50.4- 16.9---
2024-04-15 06:52 pm NW 5.1 11.1----30.41- 50.7- 15.1---
2024-04-15 05:52 pm NW 7.0 12.0----30.40- 50.7- 16.5---
2024-04-15 04:52 pm NW 8.0 15.9----30.40- 50.2- 15.1---
2024-04-15 03:52 pmWNW 8.0 17.1----30.39- 50.5- 16.2---
2024-04-15 02:52 pm NW 7.0 12.0----30.38- 50.5- 18.3---
2024-04-15 11:52 am S 1.9 2.9----30.36- 43.7- 30.2---